Skip Page Navigation
NASA JPL Caltech
NASA Logo - Jet Propulsion Laboratory + View the NASA Portal
+ Center for Near-Earth Object Studies
JPL Home Earth Solar System Stars & Galaxies Technology
JPL Solar System Dynamics
BODIES ORBITS EPHEMERIDES TOOLS PHYSICAL DATA DISCOVERY FAQ SITE MAP
JPL Small-Body Database Browser
Search: [ help ]  
47895 (2000 GZ25)
Classification: Main-belt Asteroid          SPK-ID: 2047895
Ephemeris | Orbit Diagram | Orbital Elements | Mission Design | Physical Parameters | Discovery Circumstances | Close-Approach Data ]

[ hide orbit diagram ]

For accurate long-term ephemerides, please instead use our Horizons system.This orbit viewer was implemented using two-body methods, and hence should not be used for determining accurate long-term trajectories (over several years or decades) or planetary encounter circumstances.


[ revert to old Java-based viewer ]

Orbital Elements at Epoch 2459000.5 (2020-May-31.0) TDB
Reference: JPL 21 (heliocentric ecliptic J2000)
 Element Value Uncertainty (1-sigma)   Units 
e .2767579625340756 3.9486e-08  
a 2.572340051261794 1.0022e-08 au
q 1.86042445972978 1.0406e-07 au
i 3.033702118871417 3.4974e-06 deg
node 18.36307294845265 0.00010594 deg
peri 61.14026991070185 0.00010634 deg
M 43.09924685546417 8.112e-06 deg
tp 2458820.091009327843
(2019-Dec-02.59100933)
3.4023e-05 TDB
period 1506.922774306958
4.13
8.8064e-06
2.411e-08
d
yr
n .2388974446056573 1.3961e-09 deg/d
Q 3.284255642793808 1.2795e-08 au
  Orbit Determination Parameters
   # obs. used (total)      889  
   data-arc span      17928 days (49.08 yr)  
   first obs. used      1971-03-25  
   last obs. used      2020-04-24  
   planetary ephem.      DE431  
   SB-pert. ephem.      SB431-N16  
   condition code      0  
   norm. resid. RMS      .52971  
   source      ORB  
   producer      Otto Matic  
   solution date      2020-May-20 09:41:28  

Additional Information
 Earth MOID = .878282 au 
 Jupiter MOID = 1.99824 au 
 T_jup = 3.372 
[ show covariance matrix ]

Ephemeris | Orbit Diagram | Orbital Elements | Mission Design | Physical Parameters | Discovery Circumstances | Close-Approach Data ]

Physical Parameter Table
Parameter Symbol Value Units Sigma Reference Notes
absolute magnitude H 15.7   n/a MPO412503  

47895 (2000 GZ25)          Discovered 2000-Apr-05 by LINEAR at Socorro
Reference: 20020921/Numbers.arcLast Updated: 2004-04-19

[ show close-approach data ]
Alternate Designations
 2000 GZ25 = 1998 SZ83 = 2044 T-1 
Ephemeris | Orbit Diagram | Orbital Elements | Mission Design | Physical Parameters | Discovery Circumstances | Close-Approach Data ]
ABOUT SSD CREDITS/AWARDS PRIVACY/COPYRIGHT GLOSSARY LINKS
FirstGov 2020-Sep-23 04:23 UT
(server date/time)  
NASA Home Page
Site Manager:   Ryan S. Park
Webmaster  Alan B. Chamberlin